When you browse on this site, cookies collect data to enhance your experience and personalize the content and advertising you see.
Visit our Privacy Policy to learn more. By continuing to use the site, you agree to this use of cookies and data.
  • In Schweiz
  • Länderverzeichnis
  • Für 7 Tage
  • Wassertemperatur
  • Wetterkarte
  • Widgets
  • user-avatar
    Anmelden

    Stündliche Wetter Luanda

    Heute, 7 Juni, Sonntag

    Zeit Temperatur Niederschläge Wind Luftdruck Luftfeuchtigkeit
    00:00 +23°C° 0 mm 1 m/S 755 mmHg 95%
    01:00 +23°C° 0 mm 1 m/S 755 mmHg 96%
    02:00 +23°C° 0 mm 2 m/S 754 mmHg 96%
    03:00 +23°C° 0 mm 2 m/S 754 mmHg 96%
    04:00 +23°C° 0 mm 2 m/S 754 mmHg 96%
    05:00 +23°C° 0 mm 2 m/S 754 mmHg 95%
    06:00 +23°C° 0 mm 2 m/S 755 mmHg 95%
    07:00 +23°C° 0 mm 2 m/S 755 mmHg 94%
    08:00 +25°C° 0 mm 2 m/S 755 mmHg 83%
    09:00 +27°C° 0 mm 2 m/S 755 mmHg 73%
    10:00 +29°C° 0 mm 1 m/S 755 mmHg 63%
    11:00 +31°C° 0 mm 2 m/S 754 mmHg 56%
    12:00 +34°C° 0 mm 3 m/S 754 mmHg 49%
    13:00 +36°C° 0 mm 3 m/S 753 mmHg 42%
    14:00 +34°C° 0 mm 4 m/S 752 mmHg 49%
    15:00 +32°C° 0 mm 5 m/S 752 mmHg 57%
    16:00 +30°C° 0 mm 6 m/S 752 mmHg 65%
    17:00 +28°C° 0 mm 6 m/S 752 mmHg 72%
    18:00 +27°C° 0 mm 6 m/S 753 mmHg 78%
    19:00 +25°C° 0 mm 5 m/S 753 mmHg 85%
    20:00 +25°C° 0 mm 4 m/S 753 mmHg 88%
    21:00 +24°C° 0 mm 3 m/S 754 mmHg 91%
    22:00 +23°C° 0 mm 2 m/S 754 mmHg 94%
    23:00 +23°C° 0 mm 2 m/S 754 mmHg 94%

    Morgen, 8 Juni, Montag

    Zeit Temperatur Niederschläge Wind Luftdruck Luftfeuchtigkeit
    00:00 +23°C° 0 mm 2 m/S 754 mmHg 95%
    01:00 +23°C° 0 mm 2 m/S 754 mmHg 95%
    02:00 +23°C° 0 mm 2 m/S 754 mmHg 95%
    03:00 +21°C° 0 mm 2 m/S 754 mmHg 95%
    04:00 +22°C° 0 mm 1 m/S 754 mmHg 95%
    05:00 +22°C° 0 mm 1 m/S 754 mmHg 94%
    06:00 +23°C° 0 mm 1 m/S 754 mmHg 94%
    07:00 +23°C° 0 mm 1 m/S 754 mmHg 93%
    08:00 +25°C° 0 mm 1 m/S 754 mmHg 81%
    09:00 +28°C° 0 mm 1 m/S 755 mmHg 69%
    10:00 +28°C° 0 mm 0 m/S 755 mmHg 57%
    11:00 +31°C° 0 mm 1 m/S 754 mmHg 55%
    12:00 +32°C° 0 mm 2 m/S 754 mmHg 52%
    13:00 +34°C° 0 mm 3 m/S 753 mmHg 50%
    14:00 +32°C° 0 mm 4 m/S 753 mmHg 55%
    15:00 +30°C° 0 mm 5 m/S 752 mmHg 61%
    16:00 +29°C° 0 mm 5 m/S 752 mmHg 66%
    17:00 +28°C° 0 mm 5 m/S 752 mmHg 73%
    18:00 +26°C° 0 mm 5 m/S 753 mmHg 79%
    19:00 +25°C° 0 mm 4 m/S 753 mmHg 85%
    20:00 +23°C° 0 mm 4 m/S 754 mmHg 88%
    21:00 +23°C° 0 mm 4 m/S 754 mmHg 90%
    22:00 +24°C° 0 mm 3 m/S 755 mmHg 93%
    23:00 +24°C° 0 mm 3 m/S 755 mmHg 93%

    übermorgen, 9 Juni, Dienstag

    Zeit Temperatur Niederschläge Wind Luftdruck Luftfeuchtigkeit
    00:00 +24°C° 0 mm 2 m/S 755 mmHg 92%
    01:00 +24°C° 0 mm 2 m/S 755 mmHg 92%
    02:00 +24°C° 0.1 mm 2 m/S 755 mmHg 89%
    03:00 +25°C° 0.1 mm 2 m/S 755 mmHg 86%
    04:00 +25°C° 0.1 mm 2 m/S 755 mmHg 84%
    05:00 +25°C° 0.1 mm 2 m/S 755 mmHg 82%
    06:00 +25°C° 0.1 mm 2 m/S 755 mmHg 80%
    07:00 +25°C° 0.1 mm 2 m/S 756 mmHg 78%
    08:00 +26°C° 0 mm 2 m/S 756 mmHg 72%
    09:00 +27°C° 0 mm 2 m/S 756 mmHg 66%
    10:00 +28°C° 0 mm 2 m/S 756 mmHg 60%
    11:00 +30°C° 0 mm 2 m/S 755 mmHg 54%
    12:00 +31°C° 0 mm 3 m/S 755 mmHg 49%
    13:00 +34°C° 0 mm 3 m/S 754 mmHg 43%
    14:00 +33°C° 0 mm 4 m/S 753 mmHg 47%
    15:00 +32°C° 0 mm 5 m/S 753 mmHg 50%
    16:00 +30°C° 0 mm 6 m/S 753 mmHg 54%
    17:00 +28°C° 0 mm 6 m/S 753 mmHg 63%
    18:00 +26°C° 0 mm 5 m/S 753 mmHg 72%
    19:00 +23°C° 0 mm 5 m/S 754 mmHg 81%
    20:00 +23°C° 0 mm 5 m/S 754 mmHg 84%
    21:00 +22°C° 0 mm 5 m/S 754 mmHg 88%
    22:00 +21°C° 0 mm 4 m/S 755 mmHg 92%
    23:00 +21°C° 0 mm 4 m/S 755 mmHg 93%

    10 Juni, Mittwoch

    Zeit Temperatur Niederschläge Wind Luftdruck Luftfeuchtigkeit
    00:00 +21°C° 0 mm 4 m/S 755 mmHg 94%
    01:00 +20°C° 0 mm 3 m/S 755 mmHg 95%
    02:00 +20°C° 0 mm 3 m/S 755 mmHg 95%
    03:00 +21°C° 0 mm 3 m/S 755 mmHg 94%
    04:00 +21°C° 0 mm 3 m/S 755 mmHg 93%
    05:00 +21°C° 0 mm 3 m/S 755 mmHg 93%
    06:00 +21°C° 0 mm 3 m/S 755 mmHg 93%
    07:00 +21°C° 0 mm 3 m/S 755 mmHg 93%
    08:00 +23°C° 0 mm 2 m/S 756 mmHg 84%
    09:00 +25°C° 0 mm 2 m/S 756 mmHg 74%
    10:00 +27°C° 0 mm 1 m/S 756 mmHg 65%
    11:00 +29°C° 0 mm 2 m/S 756 mmHg 58%
    12:00 +31°C° 0 mm 3 m/S 755 mmHg 51%
    13:00 +33°C° 0 mm 4 m/S 754 mmHg 45%
    14:00 +32°C° 0 mm 5 m/S 754 mmHg 48%
    15:00 +30°C° 0 mm 5 m/S 754 mmHg 52%
    16:00 +30°C° 0 mm 5 m/S 753 mmHg 55%
    17:00 +27°C° 0 mm 5 m/S 753 mmHg 65%
    18:00 +25°C° 0 mm 4 m/S 754 mmHg 76%
    19:00 +22°C° 0 mm 4 m/S 754 mmHg 86%
    20:00 +22°C° 0 mm 4 m/S 754 mmHg 88%
    21:00 +22°C° 0 mm 3 m/S 755 mmHg 91%
    22:00 +21°C° 0 mm 3 m/S 755 mmHg 93%
    23:00 +21°C° 0 mm 3 m/S 755 mmHg 94%

    11 Juni, Donnerstag

    Zeit Temperatur Niederschläge Wind Luftdruck Luftfeuchtigkeit
    00:00 +20°C° 0 mm 2 m/S 755 mmHg 95%
    01:00 +20°C° 0 mm 2 m/S 755 mmHg 96%
    02:00 +20°C° 0 mm 2 m/S 755 mmHg 95%
    03:00 +21°C° 0 mm 2 m/S 755 mmHg 94%
    04:00 +21°C° 0 mm 2 m/S 755 mmHg 94%
    05:00 +21°C° 0 mm 2 m/S 755 mmHg 91%
    06:00 +23°C° 0 mm 2 m/S 755 mmHg 89%
    07:00 +23°C° 0 mm 2 m/S 755 mmHg 87%
    08:00 +25°C° 0 mm 2 m/S 756 mmHg 77%
    09:00 +26°C° 0 mm 2 m/S 756 mmHg 68%
    10:00 +28°C° 0 mm 1 m/S 756 mmHg 58%
    11:00 +29°C° 0 mm 2 m/S 756 mmHg 53%
    12:00 +30°C° 0 mm 3 m/S 755 mmHg 49%
    13:00 +33°C° 0 mm 4 m/S 755 mmHg 44%
    14:00 +32°C° 0 mm 5 m/S 754 mmHg 48%
    15:00 +30°C° 0 mm 5 m/S 754 mmHg 52%
    16:00 +29°C° 0 mm 5 m/S 753 mmHg 56%
    17:00 +27°C° 0 mm 5 m/S 754 mmHg 64%
    18:00 +25°C° 0 mm 4 m/S 754 mmHg 72%
    19:00 +22°C° 0 mm 4 m/S 755 mmHg 80%
    20:00 +22°C° 0 mm 4 m/S 755 mmHg 82%
    21:00 +21°C° 0 mm 4 m/S 755 mmHg 85%
    22:00 +21°C° 0 mm 3 m/S 756 mmHg 88%
    23:00 +20°C° 0 mm 3 m/S 756 mmHg 90%

    12 Juni, Freitag

    Zeit Temperatur Niederschläge Wind Luftdruck Luftfeuchtigkeit
    00:00 +20°C° 0 mm 3 m/S 756 mmHg 91%
    01:00 +20°C° 0 mm 3 m/S 756 mmHg 93%
    02:00 +20°C° 0 mm 3 m/S 755 mmHg 91%
    03:00 +21°C° 0 mm 3 m/S 755 mmHg 88%
    04:00 +21°C° 0 mm 3 m/S 755 mmHg 85%
    05:00 +21°C° 0 mm 3 m/S 755 mmHg 84%
    06:00 +23°C° 0 mm 2 m/S 755 mmHg 83%
    07:00 +23°C° 0 mm 2 m/S 755 mmHg 82%
    08:00 +25°C° 0 mm 2 m/S 755 mmHg 72%
    09:00 +27°C° 0 mm 1 m/S 755 mmHg 62%
    10:00 +28°C° 0 mm 1 m/S 755 mmHg 52%
    11:00 +30°C° 0 mm 2 m/S 754 mmHg 48%
    12:00 +31°C° 0 mm 3 m/S 754 mmHg 45%
    13:00 +33°C° 0 mm 4 m/S 753 mmHg 42%
    14:00 +32°C° 0 mm 4 m/S 753 mmHg 47%
    15:00 +30°C° 0 mm 5 m/S 752 mmHg 53%
    16:00 +28°C° 0 mm 5 m/S 752 mmHg 58%
    17:00 +27°C° 0 mm 5 m/S 752 mmHg 65%
    18:00 +25°C° 0 mm 5 m/S 752 mmHg 73%
    19:00 +23°C° 0 mm 5 m/S 753 mmHg 80%
    20:00 +22°C° 0 mm 5 m/S 753 mmHg 83%
    21:00 +21°C° 0 mm 4 m/S 754 mmHg 87%
    22:00 +21°C° 0 mm 4 m/S 754 mmHg 90%
    23:00 +21°C° 0 mm 3 m/S 754 mmHg 91%
    Mehr zeigen